Location: Camerons Lookout
(40.9833°S, 175.9333°E)
Time: 17:05:41
(UTC+00:00)

CZ-4C R/B - Pass Details

Date: 14 January 2026
Orbit: 482 x 1496 km, 63.4° (Epoch: 16 February)

Event Time Altitude Azimuth Distance (km) Brightness Sun altitude
Rises 08:33:30 0° 211° (SSW) 3,604 6.9 -7.8°
Reaches altitude 10° 08:36:41 10° 200° (SSW) 2,467 5.6 -8.3°
Maximum altitude 08:41:28 29° 140° (SE) 1,290 3.2 -9.0°
Drops below altitude 10° 08:45:21 10° 79° (E) 1,969 3.6 -9.5°
Enters shadow 08:45:26 10° 78° (ENE) 1,999 3.6 -9.5°
